Location: Squirrel Cove
(50.1074°N, 124.9139°W)
Time: 19:13:26
(UTC-08:00)

Envisat - Pass Details

Date: 05 December 2022
Orbit: 763 x 765 km, 98.2° (Epoch: 05 February)

Event Time Altitude Azimuth Distance (km) Brightness Sun altitude
Rises 03:25:58 0° 25° (NNE) 3,246 6.7 -43.0°
Reaches altitude 10° 03:28:53 10° 42° (NE) 2,314 6.0 -42.5°
Enters shadow 03:29:23 12° 46° (NE) 2,178 5.8 -42.5°
